Other Public Products
Issued by NWS Grand Forks, ND

Home | Current Version | Previous Version | Text Only | Print | Product List | Glossary On
Versions: 1 2 3 4 5 6 7 8 9 10 11 12 13 14 15 16 17 18 19 20 21 22 23 24 25 26 27 28 29 30 31 32 33 34 35 36 37 38 39 40 41 42 43 44 45 46 47 48 49 50
000
FPUS83 KFGF 290531
OPUFGF
PRAIRIE TO PINES WEATHER ROUNDUP
NATIONAL WEATHER SERVICE EASTERN NORTH DAKOTA/GRAND FORKS ND
1200 AM CDT FRI JUL 29 2016

 **SATELLITE DATA USED TO AUGMENT SKY COVER AT AUTOMATED STATIONS**
 *****  WEATHER ACROSS EASTERN NORTH DAKOTA  *****

CITY           SKY/WX    TMP DP  RH WIND       PRES   REMARKS
GRAND FORKS    CLEAR     59  55  87 NW6       30.10S
GRAND FORKS AF CLEAR     58  55  92 NW3       30.11S
GRAND CITY NWS   N/A     61 N/A N/A NW3         N/A
BUXTON           N/A     61  60  96 NW3         N/A
DEVILS LAKE    CLEAR     61  57  87 E5        30.14S
FARGO          CLEAR     62  58  86 N6        30.09R
WAHPETON ARPT  CLEAR     63  59  88 N7        30.09R
$$

 *****  WEATHER ACROSS CENTRAL AND WESTERN NORTH DAKOTA  *****

CITY           SKY/WX    TMP DP  RH WIND       PRES   REMARKS
JAMESTOWN      MOCLDY    63  60  90 E3        30.12R
BISMARCK       CLOUDY    69  56  62 N5        30.12S
MINOT          CLOUDY    64  53  67 CALM      30.12F
MINOT AFB      PTCLDY    54  51  89 SW3       30.11F
GARRISON         N/A     60  56  86 N3        30.13S
WILLISTON      PTCLDY    58  52  80 CALM      30.13S
DICKINSON      MOCLDY    59  57  93 E3        30.14S
HETTINGER      PTCLDY    59  56  89 CALM      30.17R
$$

 *****  OTHER OBSERVATIONS NORTHEAST NORTH DAKOTA  *****

CITY           SKY/WX    TMP DP  RH WIND       PRES   REMARKS
WALHALLA       FAIR      55  54  94 CALM      30.12S
LANGDON        FAIR      54  54 100 CALM      30.14S
CAVALIER       FAIR      57  55  94 W6        30.12S
GRAFTON        FAIR      61  57  88 NW5       30.13S
CANDO          FAIR      57  57 100 CALM      30.15F
FORT TOTTEN    NOT AVBL
ROLLA          FAIR      55  55 100 CALM      30.15S
RUGBY          NOT AVBL
 ***** THE ABOVE OBSERVATIONS ARE NON NWS ARE NOT QUALITY
        CONTROLLED AND MAY MIS-REPORT RAIN FOR SNOW...
$$

 *****  OTHER OBSERVATIONS SOUTHEAST NORTH DAKOTA *****

CITY           SKY/WX    TMP DP  RH WIND       PRES   REMARKS
COOPERSTOWN    NOT AVBL
VALLEY CITY    MOCLDY    64  63  94 E3        30.14S
OAKES            N/A    N/A N/A N/A MISG        N/A
GWINNER        FAIR      63  61  94 N7        30.11R
SHEYENNE NWR     N/A     65  58  79 NE7       29.95S
BUFFALO          N/A     63  56  76 NE8         N/A
WYNDMERE         N/A     64  61  88 N3          N/A
 ***** THE ABOVE OBSERVATIONS ARE NON NWS ARE NOT QUALITY
       CONTROLLED AND MAY MIS-REPORT RAIN FOR SNOW...
$$

  *****  WEATHER ACROSS NORTHERN MINNESOTA  *****

CITY           SKY/WX    TMP DP  RH WIND       PRES   REMARKS
FLAG ISLAND    CLEAR     66  61  82 CALM      30.09S
WARROAD        CLEAR     55  52  88 CALM      30.11S
ROSEAU         CLEAR     55  52  88 CALM      30.11R
HALLOCK        CLEAR     57  55  94 CALM      30.11R
THF RVR FALLS  CLEAR     57  55  93 CALM      30.12R
HALSTAD          N/A     58  55  92 N5          N/A
FOSSTON        CLEAR     54  52  94 CALM      30.12R
BAUDETTE       CLEAR     58  54  86 CALM      30.09S
WASKISH        CLEAR     59  55  88 NE3       30.09S
CROOKSTON      CLEAR     61  55  82 N3        30.11S
$$
  *****  WEATHER ACROSS CENTRAL AND WEST MINNESOTA  *****

CITY           SKY/WX    TMP DP  RH WIND       PRES   REMARKS
BEMIDJI        CLEAR     55  54  94 CALM      30.10R
PARK RAPIDS    CLEAR     60  56  86 W6        30.10R
WADENA         PTCLDY    59  57  94 CALM      30.10S
DETROIT LAKES  CLEAR     64  61  88 CALM      30.12S
MOORHEAD       CLEAR     61  57  88 CALM      30.11R
FERGUS FALLS   PTCLDY    70  61  73 SE5       30.10R
ELBOW LAKE     FAIR      63  60  87 E5        30.10R
MORRIS MN      CLOUDY    66  63  88 CALM      30.09R
STAPLES        CLEAR     61  57  88 CALM      30.11R
WHEATON        CLOUDY    66  63  88 S8        30.10R
$$
  *****  WEATHER ELSEWHERE ACROSS MINNESOTA  *****

CITY           SKY/WX    TMP DP  RH WIND       PRES   REMARKS
DULUTH         CLEAR     55  51  86 CALM      30.10S
INTRNTL FALLS  CLEAR     54  52  93 CALM      30.09S
ELY            CLEAR     52  48  87 CALM      30.12S
CLOQUET        CLEAR     54  50  87 CALM      30.11R
BRAINERD       MOCLDY    61  58  90 CALM      30.10R
HIBBING        CLEAR     51  51 100 CALM      30.11S
ALEXANDRIA     CLEAR     63  56  78 SE5       30.12R
SAINT CLOUD    CLEAR     58  56  93 CALM      30.08S
MINNEAPOLIS    PTCLDY    68  57  68 NE8       30.05R
$$

  *****  WEATHER ACROSS SOUTH DAKOTA  *****

CITY           SKY/WX    TMP DP  RH WIND       PRES   REMARKS
SIOUX FALLS    PTCLDY    61  56  83 N3        30.09R
BROOKINGS      PTCLDY    64  54  69 E3        30.10R
WATERTOWN      CLOUDY    68  57  68 NE3       30.10S
HURON          CLOUDY    68  57  68 SE6       30.08S
SISSETON         N/A     66  64  93 CALM      30.07S
ABERDEEN       CLOUDY    65  60  84 CALM      30.09R
MITCHELL       CLOUDY    68  60  75 E5        30.09R
PIERRE         CLOUDY    65  63  93 CALM      30.09R
MOBRIDGE       CLOUDY    69  58  67 N6        30.09R
RAPID CITY     MOCLDY    60  57  89 NE5       30.17R
$$

  *****  SOME WEATHER IN NEARBY STATES *****

CITY           SKY/WX    TMP DP  RH WIND       PRES   REMARKS
GLASGOW MT     CLEAR     64  56  75 E8        30.10S
GREAT FALLS MT CLEAR     71  50  47 E12       30.08S
CHEYENNE WY    CLEAR     61  55  81 N3        30.30R
SCOTTSBLUFF NE PTCLDY    65  60  84 N3        30.18R
OMAHA NE       CLOUDY    72  64  76 N3        30.04R
DES MOINES IA  CLOUDY    71  65  81 N8        29.99R
DAVENPORT IA   CLEAR     68  66  93 NW6       29.93S
CHICAGO IL     MOCLDY    70  69  97 N6        29.91F
EAU CLAIRE WI  CLOUDY    65  63  93 CALM      30.03S
LA CROSSE WI   CLOUDY    65  62  90 N6        30.00S
$$

  *****  SOME NATIONAL WEATHER *****

CITY           SKY/WX    TMP DP  RH WIND       PRES   REMARKS
LA GUARDIA NY  LGT RAIN  80  71  74 NE3       29.86S
RALEIGH NC     CLEAR     79  71  76 SW7       29.88R
ATLANTA GA     MOCLDY    77  71  82 W6        30.01S
NEW ORLEANS LA PTCLDY    82  73  74 CALM      30.02R
OKLAHOMA CITY  MOCLDY    82  74  76 NE8       29.98R
ALBUQUERQUE NM PTCLDY    84  46  26 SW6       30.12F
SALT LAKE CITY CLEAR     87  41  19 CALM      30.03R
LOS ANGELES CA PTCLDY    71  62  73 W9        29.85S
BOISE ID       CLEAR     81  41  24 SW7       29.94R
SEATTLE WA     CLEAR     76  61  59 N7        30.04R
$$

*** WEATHER ACROSS MANITOBA...SASKATCHEWAN AND ONTARIO ***
                ***ONTARIO***

CITY           SKY/WX    TMP DP  RH WIND       PRES   REMARKS
GERALDTON      PTCLDY    57  52  82 NW5       30.10S
THUNDER BAY    CLEAR     55  54  94 W3        30.10R
SIOUX LOOKOUT  CLEAR     50  50 100 CALM      30.10S
TORONTO        LGT RAIN  72  66  83 N8        29.92S
BIG TROUT LK   MOCLDY    55  54  94 SW3       30.03F
PICKLE LAKE    NOT AVBL
DRYDEN         CLEAR     61  54  77 NE3       30.11S
KENORA         CLEAR     64  54  68 SE3       30.11R
$$
                *** MANITOBA***

CITY           SKY/WX    TMP DP  RH WIND       PRES   REMARKS
BRANDON        CLEAR     57  54  88 W6        30.12R
DAUPHIN        CLOUDY    64  57  77 W8        30.07R
ISLAND LAKE    MOCLDY    68  59  73 SE6       30.02F
PILOT MOUND      N/A     55  54  94 S5          N/A
THE PAS        PTCLDY    66  59  77 SW6       30.01S
THOMPSON       PTCLDY    61  57  88 E5        30.02R
WINNIPEG       PTCLDY    61  54  77 S2        30.10S
LYNN LAKE      CLOUDY    64  57  77 MISG      30.00F
CHURCHILL      PTCLDY    50  45  81 NW2       30.08F
GILLAM         PTCLDY    59  57  94 E3        30.05
$$
                ***SASKATCHEWAN***

CITY           SKY/WX    TMP DP  RH WIND       PRES   REMARKS
ESTEVAN        PTCLDY    59  55  88 SE7       30.13S
KINDERSLEY     MOCLDY    63  59  88 NW3       30.07R
LLOYDMINSTER   MOCLDY    63  55  77 N10G17    30.08R
PRINCE ALBERT  LGT RAIN  63  61  94 VRB2      30.03R
REGINA         PTCLDY    61  52  72 SE9       30.10S
YORKTON        CLEAR     64  57  77 S8        30.10R  C1F1C2F2C3F3C4F4C5F5C6F6C7F7C8F8C9F9CaFaCbFbCcFcCdFdCe!



USA.gov is the U.S. government's official web portal to all federal, state and local government web resources and services.